{"data":{"norad_id":59622,"intl_designator":"2024-080X","name":"STARLINK-31774","alt_names":[],"object_type":"PAYLOAD","status":"ACTIVE","operator":null,"country":"US","launch_date":"2024-04-28","launch_site_code":"AFETR","launch_vehicle":null,"mission":null,"orbit_class":"UNKNOWN","rcs_meters":null,"size_class":null,"mass_kg":null,"dimensions":null,"purposes":["comms"],"wikipedia_slug":null,"has_3d_model":false,"image_url":null,"decayed_at":null,"tle_current":{"epoch":"2026-05-24T22:42:08.817696Z","epoch_age_seconds":76107,"freshness":"FRESH","line1":"1 59622U 24080X   26144.94593539  .00001231  00000+0  54241-4 0  9998","line2":"2 59622  43.0010 323.9212 0000997 305.9169  54.1590 15.27583378116230","mean_motion":15.27583378,"eccentricity":9.97e-5,"inclination_deg":43.001,"raan_deg":323.9212,"arg_perigee_deg":305.9169,"mean_anomaly_deg":54.159,"bstar":5.4241e-5,"rev_number":11623,"period_min":94.266540258204,"perigee_km":482.35492186575,"apogee_km":483.72304035638,"semimajor_km":6861.1759811111,"source":"CELESTRAK","updated_at":"2026-05-25T13:38:19.011971Z"}}}